CARTOSAT-2D

Last updated on Sat Oct 18 2025 00:02:33 GMT+0000 (Coordinated Universal Time)

1 41948U 17008A 25290.71478648 .00008086 00000+0 38640-3 0 9990 2 41948 97.4476 349.0383 0005111 12.2465 347.8893 15.19271633480768
UTC large
Height (km)
Speed (km/s)
/
Latitude / Longitude
Inclination (degrees)
Orbital Period (minutes)
Azimuth
Elevation
Range (km)
Doppler Factor

Next 0 passes for location: London (51.5072 / 0.1276)

Sorry there are no passes over London.